Location: ?????
(33.6267°N, 35.4675°E)
Time: 23:57:30
(UTC+00:00)

CZ-4 R/B - Pass Details

Date: 12 November 2019
Orbit: 530 x 601 km, 97.7° (Epoch: 10 December)

Event Time Altitude Azimuth Distance (km) Brightness Sun altitude
Rises 15:13:52 0° 137° (SE) 2,833 4.7 -8.0°
Reaches altitude 10° 15:16:24 10° 122° (ESE) 1,930 3.7 -8.5°
Maximum altitude 15:19:40 22° 71° (ENE) 1,300 2.6 -9.2°
Drops below altitude 10° 15:22:54 10° 20° (NNE) 1,918 3.8 -9.8°
Sets 15:25:24 0° 5° (N) 2,811 4.7 -10.3°
